This is the latest recevied weather packets stored in our database for station/object CT1ETE-13. If no packets are shown the sender has not sent any weather packets the latest 10 day(s).
| Time | Temp. | Humidity | Pressure | Rain* | Wind** | Luminosity | Snow |
|---|---|---|---|---|---|---|---|
| 1777463870 | 15.56° C | 82% | 1007.4 hPa | 0 mm | - | - | - |
| 1777462964 | 15.56° C | 70% | 1007.4 hPa | 0.51 mm | - | - | - |
| 1777462124 | 15.56° C | 61% | 1007.4 hPa | 1.52 mm | - | - | - |
| 1777461164 | 15° C | 62% | 1007.5 hPa | 2.54 mm | - | - | - |
| 1777460263 | 14.44° C | 63% | 1007.4 hPa | 5.08 mm | - | - | - |
| 1777459362 | 14.44° C | 64% | 1007.3 hPa | 5.84 mm | - | - | - |
| 1777458463 | 14.44° C | 65% | 1007.3 hPa | 7.62 mm | - | - | - |
| 1777457619 | 14.44° C | 66% | 1007.5 hPa | 8.13 mm | - | - | - |
| 1777456717 | 14.44° C | 67% | 1007.4 hPa | 11.94 mm | - | - | - |
| 1777455756 | 14.44° C | 69% | 1007.3 hPa | 14.48 mm | - | - | - |
| 1777454857 | 15° C | 70% | 1007.1 hPa | 11.94 mm | - | - | - |
| 1777453957 | 15° C | 72% | 1007 hPa | 10.41 mm | - | - | - |
| 1777453060 | 15° C | 75% | 1006.9 hPa | 4.06 mm | - | - | - |
| 1777452152 | 15° C | 78% | 1006.9 hPa | 0.25 mm | - | - | - |
| 1777451252 | 15° C | 79% | 1006.9 hPa | 0 mm | - | - | - |
| 1777450352 | 15° C | 80% | 1007 hPa | 0 mm | - | - | - |
| 1777449452 | 15.56° C | 81% | 1007 hPa | 0 mm | - | - | - |
| 1777448552 | 15.56° C | 81% | 1007 hPa | 0 mm | - | - | - |
| 1777447652 | 15° C | 81% | 1006.9 hPa | 0 mm | - | - | - |
| 1777446750 | 15° C | 80% | 1006.8 hPa | 0 mm | - | - | - |
| 1777445851 | 15° C | 79% | 1006.6 hPa | 0 mm | - | - | - |
| 1777444948 | 15° C | 79% | 1006.6 hPa | 0 mm | - | - | - |
| 1777444107 | 15° C | 79% | 1006.4 hPa | 0 mm | - | - | - |
| 1777443145 | 15° C | 80% | 1006.3 hPa | 0 mm | - | - | - |
| 1777442246 | 15° C | 82% | 1006.2 hPa | 0 mm | - | - | - |
* Rain latest hour (hover to see other rain measurements)
** Current wind speed in m/s (hover to see current wind gust speed)